Find INTELSAT IV F5

NORAD ID: 6052 Int'l Des: 1972-041 Owner: INTEL Country: I-INT operational
HEOCIRCULAR

Current View

Loading 3D Globe...

About INTELSAT IV F5

Description loading...

Upcoming Passes

Passes for default location (London). Set your location on the main map for personalized predictions.

Altitude History

Loading altitude history...

Two-Line Element Set

1 06052U 72041A 26150.58828165 .00000085 00000-0 00000-0 0 9997
2 06052 5.7730 286.9939 0002355 297.3066 62.7415 1.00128458 46476
Epoch: May 30, 2026 • Age: 22 hours

Current Status

Altitude 35817.8 km
Velocity 3.07 km/s
Sub-Earth Point -3.43°S, 173.18°W
Type communications

Most Searched